#timestamp,LO_Frequency,Hit,StdDev 
1591113615.0,286046998.4,P
1591113615.9,286046998.4,N
1591113635.8,286047000.4,N
1591113655.6,286047002.7,N
1591113675.4,286047003.2,N
1591113695.3,286047003.6,N
1591113715.1,286047001.6,N
1591113735.8,286047000.4,N
1591113755.7,286047000.0,N
1591113775.5,286047002.7,N
1591113795.4,286047002.7,N
1591113815.2,286047000.2,N
1591113835.0,286046999.9,N
1591113835.9,286046999.9,N
1591113855.8,286047002.8,N
1591113875.6,286047001.7,N
1591113895.5,286047002.1,N
1591113915.3,286047002.1,N
1591113935.1,286047003.7,N
1591113955.9,286047003.2,N
1591113975.7,286047005.3,Y
1591113995.5,286047003.8,P
1591114015.4,286047004.1,P
1591114035.2,286047000.9,N
1591114055.1,286047000.8,N
1591114056.0,286047000.8,N
1591114075.8,286047000.1,N
1591114095.6,286047001.0,N
1591114115.5,286047000.6,N
1591114135.3,286046999.3,N
1591114155.2,286047000.8,N
1591114175.9,286047004.1,N
1591114195.7,286047004.9,Y
1591114215.6,286047008.7,P
1591114235.4,286047009.6,N
1591114255.2,286047013.7,P
1591114275.1,286047014.1,Y
1591114276.0,286047014.1,P
1591114295.8,286047008.7,P
1591114315.7,286047015.5,P
1591114335.5,286047012.9,Y
1591114355.3,286047002.5,P
1591114375.2,286046998.4,N
1591114395.0,286046996.9,N
1591114395.9,286046996.9,N
1591114415.8,286046995.6,N
1591114435.6,286046997.1,N
1591114455.4,286046999.5,N
1591114475.3,286046998.9,N
1591114495.1,286046997.6,N
1591114515.9,286046993.5,N
1591114535.7,286046995.8,N
1591114555.5,286046994.1,N
1591114575.4,286046994.1,N
1591114595.2,286046990.7,N
1591114615.0,286046986.9,N
1591114616.0,286046986.9,N
1591114635.8,286046989.7,N
1591114655.6,286046985.6,N
1591114675.5,286046984.0,N
1591114695.3,286046985.1,N
1591114715.2,286046987.9,N
1591114735.9,286046986.2,N
1591114755.7,286046983.9,N
1591114775.6,286046983.0,N
1591114795.4,286046981.2,N
1591114815.2,286046983.4,N
1591114835.1,286046981.6,N
1591114836.0,286046981.6,N
1591114855.8,286046980.0,N
1591114875.7,286046982.0,N
1591114895.5,286046980.8,N
1591114915.3,286046983.5,N
1591114935.2,286046980.6,Y
1591114955.0,286046991.3,P
1591114955.9,286046991.3,P
1591114975.8,286046987.5,P
1591114995.6,286046987.5,Y
1591115015.4,286046996.5,P
1591115035.3,286046998.0,N
1591115055.1,286046995.5,N
1591115075.9,286047000.7,N
1591115095.7,286046996.9,N
1591115115.5,286046997.3,N
1591115135.4,286046999.3,N
1591115155.2,286047001.7,N
1591115175.0,286047004.2,N
1591115175.9,286047004.2,N
1591115195.8,286047000.3,N
1591115215.6,286046998.5,N
1591115235.5,286046998.5,N
1591115255.3,286047000.7,N
1591115275.1,286046997.0,N
1591115295.9,286047001.9,N
1591115315.7,286046998.5,N
1591115335.6,286046999.9,N
1591115355.4,286047000.4,N
1591115375.2,286046999.9,N
1591115395.1,286047000.3,N
1591115396.0,286047000.3,N
1591115415.8,286047005.2,N
1591115435.7,286047012.0,Y
1591115455.5,286047020.0,P
1591115475.3,286047018.7,N
1591115495.2,286047016.8,N
1591115515.0,286047016.9,N
1591115515.9,286047016.9,N
1591115535.7,286047015.3,N
1591115555.6,286047013.7,N
1591115575.4,286047010.8,N
1591115595.3,286047009.1,N
1591115615.1,286047007.8,N
1591115635.8,286047006.3,N
1591115655.7,286047013.6,N
1591115675.5,286047011.7,N
1591115695.4,286047013.9,N
1591115715.2,286047010.6,N
1591115735.0,286047006.1,N
1591115735.9,286047006.1,N
1591115755.8,286047005.4,N
1591115775.6,286047003.6,N
1591115795.4,286047000.9,N
1591115815.3,286046998.1,N
1591115835.1,286046999.3,N
1591115855.9,286046998.1,N
1591115875.7,286047002.3,N
1591115895.5,286047009.0,N
1591115915.4,286047013.7,N
1591115935.2,286047014.0,N
1591115955.1,286047012.6,N
1591115956.0,286047012.6,N
1591115975.8,286047011.7,N
1591115995.6,286047009.5,N
1591116015.5,286047012.3,N
1591116035.3,286047015.4,N
1591116055.2,286047016.9,Y
1591116075.9,286047004.8,P
1591116095.7,286047004.9,N
1591116115.6,286047001.6,N
1591116135.4,286047000.8,N
1591116155.2,286047001.3,N
1591116175.1,286047004.5,N
1591116176.0,286047004.5,N
1591116195.8,286047012.4,Y
1591116215.7,286047006.7,P
1591116235.5,286047005.6,P
1591116255.3,286047003.3,N
1591116275.2,286047002.3,N
1591116295.0,286046996.7,N
1591116295.9,286046996.7,N
1591116315.8,286046997.7,N
1591116335.6,286046997.2,N
1591116355.4,286046999.4,N
1591116375.3,286047002.8,N
1591116395.1,286047003.8,N
1591116415.9,286047003.2,N
1591116435.7,286046999.8,N
1591116455.5,286046995.0,N
1591116475.4,286046994.1,N
1591116495.2,286046993.4,N
1591116515.1,286046993.1,N
1591116516.0,286046993.1,N
1591116535.8,286046990.6,N
1591116555.6,286046990.4,N
1591116575.5,286046991.9,N
1591116595.3,286046992.2,N
1591116615.2,286046990.7,N
1591116635.9,286046989.4,N
1591116655.7,286046989.3,N
1591116675.6,286046989.8,N
1591116695.4,286046988.3,N
1591116715.2,286046986.1,N
1591116735.1,286046986.0,N
1591116736.0,286046986.0,N
1591116755.8,286046988.1,N
1591116775.7,286046988.5,N
1591116795.5,286046989.8,N
1591116815.4,286046989.2,N
1591116835.2,286046992.8,N
1591116855.0,286046990.6,N
1591116855.9,286046990.6,N
1591116875.8,286046991.6,N
1591116895.6,286046991.0,N
1591116915.4,286046991.0,N
1591116935.3,286046991.2,N
1591116955.1,286046989.8,N
1591116975.9,286046987.8,Y
1591116995.7,286046997.9,P
1591117015.5,286046995.8,N
1591117035.4,286046993.5,N
1591117055.2,286046996.0,N
1591117075.1,286046995.9,N
1591117076.0,286046995.9,N
1591117095.8,286046992.9,Y
1591117115.6,286046995.0,P
1591117135.5,286046996.5,P
1591117155.3,286047000.3,N
1591117175.2,286047007.0,Y
1591117195.9,286047014.9,P
